Location: Gull Harbor
(47.1000°N, 122.9000°W)
Time: 14:36:31
(UTC-07:00)

Envisat - Visible Passes

Search period start: 25 March 2017 00:00
Search period end: 04 April 2017 00:00
Orbit: 764 x 766 km, 98.2° (Epoch: 24 March)

Date Brightness Start Highest point End Pass type
(mag) Time Alt. Az. Time Alt. Az. Time Alt. Az.
25 Mar 2.9 21:00:25 13° SSE 21:04:55 73° ENE 21:10:00 10° N visible
25 Mar 5.5 22:41:25 10° SW 22:44:29 16° W 22:47:34 10° NW visible
26 Mar 3.6 20:23:47 10° SE 20:28:23 36° ENE 20:33:01 10° N visible
26 Mar 4.5 22:03:23 12° SSW 22:07:25 33° W 22:12:00 10° NNW visible
27 Mar 3.2 21:26:09 14° S 21:30:33 68° WSW 21:35:39 10° NNW visible
28 Mar 3.1 20:48:54 10° SSE 20:53:53 59° ENE 20:58:53 10° N visible
28 Mar 5.3 22:29:38 10° SW 22:33:17 20° W 22:36:59 10° NW visible
29 Mar 3.9 20:13:03 10° ESE 20:17:24 30° ENE 20:21:47 10° N visible
29 Mar 4.2 21:51:53 12° SSW 21:56:17 40° W 22:01:05 10° NNW visible
30 Mar 3.0 21:14:39 11° SSE 21:19:29 84° WSW 21:24:36 10° NNW visible
30 Mar 5.7 22:57:36 10° WSW 22:59:17 11° W 23:00:57 10° WNW visible
31 Mar 3.3 20:38:00 10° SE 20:42:52 48° ENE 20:47:45 10° N visible
31 Mar 5.0 22:18:01 10° SSW 22:22:07 24° W 22:26:14 10° NW visible
01 Apr 3.8 21:40:23 11° S 21:45:10 50° W 21:50:08 10° NNW visible
02 Apr 2.9 21:03:20 10° SSE 21:08:25 79° ENE 21:13:32 10° NNW visible
02 Apr 5.6 22:45:18 10° WSW 22:48:03 15° W 22:50:50 10° NW visible
03 Apr 3.6 20:27:11 10° SE 20:31:52 39° ENE 20:36:34 10° N visible
03 Apr 4.7 22:06:32 10° SSW 22:10:58 30° W 22:15:25 10° NNW visible
